Torna al catalogo

QIANFAN-123

AttivoComunicazioniPO
NORAD 68650·PAYLOAD·🇨🇳 China

Lanciato Apr 7, 2026 da Wenchang Space Launch Site

Loading…

Prossimi Passaggi (prossime 24 ore)

TLE

AggiornatoSource: Space-Track

Epoca: Sep 14, 2026, 13:19 UTC

1 68650U 26075Q   26257.55491377 -.01764470  00000-0 -31074+1 0  9994
2 68650  88.9866 311.8593 0008189 128.6997 231.4885 13.46994112 21857

Traccia QIANFAN-123 in tempo reale con AllMySat

Download on the App Store